This is the latest recevied weather packets stored in our database for station/object SV2BZQ-2. If no packets are shown the sender has not sent any weather packets the latest 1 day(s).
| Time | Temp. | Humidity | Pressure | Rain* | Wind** | Luminosity | Snow |
|---|---|---|---|---|---|---|---|
| 1777982594 | 28.89° C | 35% | 1012.4 hPa | 0 mm | 2.68 m/s, 9° | 814 W/m² | - |
| 1777982475 | 28.89° C | 35% | 1012.3 hPa | 0 mm | 2.24 m/s, 280° | 819 W/m² | - |
| 1777982373 | 28.89° C | 35% | 1012.4 hPa | 0 mm | 2.24 m/s, 268° | 826 W/m² | - |
| 1777982260 | 28.89° C | 35% | 1012.4 hPa | 0 mm | 2.24 m/s, 295° | 826 W/m² | - |
| 1777982142 | 28.89° C | 36% | 1012.4 hPa | 0 mm | 2.24 m/s, 306° | 830 W/m² | - |
| 1777982007 | 28.33° C | 36% | 1012.4 hPa | 0 mm | 2.24 m/s, 292° | 831 W/m² | - |
| 1777981915 | 28.33° C | 36% | 1012.4 hPa | 0 mm | 2.24 m/s, 265° | 831 W/m² | - |
| 1777981797 | 28.33° C | 36% | 1012.4 hPa | 0 mm | 2.24 m/s, 218° | 835 W/m² | - |
| 1777981678 | 28.33° C | 36% | 1012.4 hPa | 0 mm | 1.79 m/s, 289° | 831 W/m² | - |
| 1777981549 | 28.33° C | 36% | 1012.5 hPa | 0 mm | 1.79 m/s, 350° | 833 W/m² | - |
| 1777981423 | 28.33° C | 36% | 1012.5 hPa | 0 mm | 1.79 m/s, 249° | 837 W/m² | - |
| 1777981225 | 28.33° C | 36% | 1012.5 hPa | 0 mm | 1.79 m/s, 222° | 840 W/m² | - |
| 1777981125 | 28.33° C | 37% | 1012.5 hPa | 0 mm | 2.24 m/s, 286° | 846 W/m² | - |
| 1777981005 | 28.33° C | 36% | 1012.6 hPa | 0 mm | 2.24 m/s, 223° | 847 W/m² | - |
| 1777980900 | 28.33° C | 36% | 1012.6 hPa | 0 mm | 1.79 m/s, 222° | 853 W/m² | - |
| 1777980797 | 28.33° C | 36% | 1012.5 hPa | 0 mm | 1.79 m/s, 280° | 851 W/m² | - |
| 1777980669 | 28.33° C | 36% | 1012.6 hPa | 0 mm | 1.79 m/s, 338° | 853 W/m² | - |
| 1777980521 | 28.33° C | 37% | 1012.6 hPa | 0 mm | 1.79 m/s, 325° | 856 W/m² | - |
| 1777980364 | 28.33° C | 36% | 1012.6 hPa | 0 mm | 2.24 m/s, 256° | 856 W/m² | - |
| 1777980265 | 28.33° C | 37% | 1012.7 hPa | 0 mm | 2.24 m/s, 236° | 860 W/m² | - |
| 1777980162 | 28.33° C | 38% | 1012.7 hPa | 0 mm | 2.24 m/s, 253° | 860 W/m² | - |
| 1777980036 | 28.33° C | 37% | 1012.6 hPa | 0 mm | 2.24 m/s, 310° | 861 W/m² | - |
| 1777979914 | 27.78° C | 38% | 1012.7 hPa | 0 mm | 2.24 m/s, 313° | 861 W/m² | - |
| 1777979790 | 27.78° C | 37% | 1012.7 hPa | 0 mm | 2.24 m/s, 36° | 865 W/m² | - |
| 1777979682 | 27.78° C | 37% | 1012.7 hPa | 0 mm | 2.24 m/s, 338° | 865 W/m² | - |
* Rain latest hour (hover to see other rain measurements)
** Current wind speed in m/s (hover to see current wind gust speed)